• In Czech Republic
  • List of Countries
  • For 7 days
  • Water Temperature
  • Satellite Maps
  • Weather Map
  • Weather Widgets
  • user-avatar
    Login

    Hourly Weather Gjirokaster

    Today, 21 August, Tuesday

    Time Temperature Precipitation Wind Pressure Humidity
    00:00 +16°C° 0 mm 2 mps 652 mmHg 61%
    01:00 +16°C° 0 mm 2 mps 652 mmHg 62%
    02:00 +16°C° 0 mm 2 mps 652 mmHg 62%
    03:00 +15°C° 0 mm 2 mps 652 mmHg 62%
    04:00 +15°C° 0 mm 2 mps 652 mmHg 63%
    05:00 +16°C° 0 mm 2 mps 652 mmHg 61%
    06:00 +17°C° 0 mm 2 mps 653 mmHg 59%
    07:00 +19°C° 0 mm 2 mps 653 mmHg 57%
    08:00 +20°C° 0 mm 2 mps 654 mmHg 51%
    09:00 +23°C° 0 mm 1 mps 654 mmHg 46%
    10:00 +25°C° 0 mm 1 mps 655 mmHg 40%
    11:00 +25°C° 0 mm 1 mps 654 mmHg 41%
    12:00 +25°C° 0 mm 2 mps 654 mmHg 42%
    13:00 +25°C° 0 mm 2 mps 654 mmHg 42%
    14:00 +24°C° 0 mm 2 mps 654 mmHg 46%
    15:00 +23°C° 0 mm 2 mps 654 mmHg 50%
    16:00 +22°C° 0 mm 1 mps 653 mmHg 54%
    17:00 +21°C° 0.1 mm 1 mps 653 mmHg 56%
    18:00 +20°C° 0.1 mm 1 mps 653 mmHg 59%
    19:00 +20°C° 0.1 mm 1 mps 653 mmHg 61%
    20:00 +19°C° 0 mm 1 mps 653 mmHg 63%
    21:00 +18°C° 0 mm 1 mps 653 mmHg 65%
    22:00 +18°C° 0 mm 1 mps 653 mmHg 66%
    23:00 +16°C° 0 mm 1 mps 653 mmHg 66%

    Tomorrow, 22 August, Wednesday

    Time Temperature Precipitation Wind Pressure Humidity
    00:00 +16°C° 0 mm 1 mps 653 mmHg 67%
    01:00 +16°C° 0 mm 1 mps 653 mmHg 67%
    02:00 +15°C° 0 mm 1 mps 653 mmHg 66%
    03:00 +15°C° 0 mm 2 mps 653 mmHg 66%
    04:00 +15°C° 0 mm 2 mps 653 mmHg 65%
    05:00 +16°C° 0 mm 2 mps 653 mmHg 62%
    06:00 +17°C° 0 mm 2 mps 653 mmHg 59%
    07:00 +19°C° 0 mm 2 mps 654 mmHg 56%
    08:00 +22°C° 0 mm 1 mps 654 mmHg 50%
    09:00 +23°C° 0 mm 1 mps 655 mmHg 44%
    10:00 +25°C° 0 mm 1 mps 655 mmHg 37%
    11:00 +26°C° 0 mm 1 mps 655 mmHg 36%
    12:00 +26°C° 0 mm 2 mps 655 mmHg 36%
    13:00 +26°C° 0 mm 3 mps 655 mmHg 35%
    14:00 +25°C° 0 mm 3 mps 655 mmHg 39%
    15:00 +25°C° 0 mm 3 mps 654 mmHg 42%
    16:00 +24°C° 0 mm 3 mps 654 mmHg 45%
    17:00 +21°C° 0 mm 2 mps 654 mmHg 50%
    18:00 +20°C° 0 mm 2 mps 654 mmHg 54%
    19:00 +18°C° 0 mm 2 mps 654 mmHg 59%
    20:00 +18°C° 0 mm 2 mps 654 mmHg 59%
    21:00 +17°C° 0 mm 2 mps 654 mmHg 59%
    22:00 +17°C° 0 mm 2 mps 654 mmHg 60%
    23:00 +16°C° 0 mm 2 mps 653 mmHg 57%

    Day after tomorrow, 23 August, Thursday

    Time Temperature Precipitation Wind Pressure Humidity
    00:00 +16°C° 0 mm 2 mps 653 mmHg 55%
    01:00 +16°C° 0 mm 2 mps 653 mmHg 53%
    02:00 +16°C° 0 mm 2 mps 653 mmHg 51%
    03:00 +15°C° 0 mm 2 mps 653 mmHg 49%
    04:00 +15°C° 0 mm 2 mps 652 mmHg 47%
    05:00 +16°C° 0 mm 2 mps 653 mmHg 46%
    06:00 +17°C° 0 mm 2 mps 653 mmHg 46%
    07:00 +18°C° 0 mm 2 mps 653 mmHg 45%
    08:00 +20°C° 0 mm 2 mps 654 mmHg 41%
    09:00 +23°C° 0 mm 1 mps 654 mmHg 36%
    10:00 +25°C° 0 mm 1 mps 655 mmHg 32%
    11:00 +26°C° 0 mm 2 mps 655 mmHg 31%
    12:00 +26°C° 0 mm 2 mps 654 mmHg 30%
    13:00 +27°C° 0 mm 3 mps 654 mmHg 30%
    14:00 +26°C° 0 mm 3 mps 654 mmHg 34%
    15:00 +25°C° 0 mm 2 mps 654 mmHg 38%
    16:00 +24°C° 0 mm 2 mps 653 mmHg 42%
    17:00 +23°C° 0 mm 2 mps 653 mmHg 46%
    18:00 +20°C° 0 mm 2 mps 653 mmHg 50%
    19:00 +20°C° 0 mm 1 mps 652 mmHg 55%
    20:00 +19°C° 0 mm 1 mps 652 mmHg 55%
    21:00 +19°C° 0 mm 1 mps 652 mmHg 56%
    22:00 +18°C° 0 mm 1 mps 652 mmHg 56%
    23:00 +18°C° 0 mm 1 mps 652 mmHg 55%

    24 August, Friday

    Time Temperature Precipitation Wind Pressure Humidity
    00:00 +16°C° 0 mm 1 mps 652 mmHg 54%
    01:00 +16°C° 0 mm 1 mps 652 mmHg 53%
    02:00 +16°C° 0 mm 1 mps 652 mmHg 52%
    03:00 +16°C° 0 mm 1 mps 652 mmHg 51%
    04:00 +16°C° 0 mm 1 mps 651 mmHg 50%
    05:00 +18°C° 0 mm 1 mps 652 mmHg 49%
    06:00 +19°C° 0 mm 1 mps 652 mmHg 48%
    07:00 +20°C° 0 mm 1 mps 652 mmHg 47%
    08:00 +22°C° 0 mm 1 mps 653 mmHg 43%
    09:00 +24°C° 0 mm 1 mps 653 mmHg 39%
    10:00 +26°C° 0 mm 1 mps 654 mmHg 34%
    11:00 +26°C° 0 mm 1 mps 653 mmHg 35%
    12:00 +26°C° 0 mm 2 mps 653 mmHg 35%
    13:00 +26°C° 0 mm 2 mps 653 mmHg 35%
    14:00 +25°C° 0 mm 2 mps 652 mmHg 39%
    15:00 +24°C° 0 mm 2 mps 652 mmHg 42%
    16:00 +24°C° 0 mm 2 mps 652 mmHg 46%
    17:00 +21°C° 0 mm 2 mps 651 mmHg 50%
    18:00 +20°C° 0 mm 2 mps 651 mmHg 55%
    19:00 +20°C° 0 mm 1 mps 651 mmHg 60%
    20:00 +19°C° 0 mm 1 mps 651 mmHg 61%
    21:00 +19°C° 0 mm 1 mps 651 mmHg 63%
    22:00 +18°C° 0 mm 1 mps 651 mmHg 64%
    23:00 +18°C° 0 mm 1 mps 651 mmHg 64%

    25 August, Saturday

    Time Temperature Precipitation Wind Pressure Humidity
    00:00 +16°C° 0 mm 1 mps 651 mmHg 65%
    01:00 +16°C° 0 mm 1 mps 650 mmHg 66%
    02:00 +16°C° 0 mm 1 mps 650 mmHg 65%
    03:00 +15°C° 0 mm 1 mps 650 mmHg 64%
    04:00 +15°C° 0 mm 1 mps 650 mmHg 64%
    05:00 +16°C° 0 mm 1 mps 650 mmHg 60%
    06:00 +18°C° 0 mm 1 mps 651 mmHg 56%
    07:00 +20°C° 0 mm 1 mps 651 mmHg 52%
    08:00 +22°C° 0 mm 1 mps 652 mmHg 46%
    09:00 +23°C° 0 mm 1 mps 652 mmHg 41%
    10:00 +25°C° 0 mm 1 mps 653 mmHg 35%
    11:00 +25°C° 0 mm 2 mps 652 mmHg 35%
    12:00 +26°C° 0 mm 2 mps 652 mmHg 35%
    13:00 +26°C° 0 mm 3 mps 652 mmHg 34%
    14:00 +26°C° 0 mm 3 mps 652 mmHg 37%
    15:00 +25°C° 0 mm 3 mps 652 mmHg 40%
    16:00 +25°C° 0 mm 3 mps 651 mmHg 42%
    17:00 +23°C° 0 mm 2 mps 651 mmHg 49%
    18:00 +20°C° 0 mm 2 mps 651 mmHg 55%
    19:00 +19°C° 0 mm 1 mps 651 mmHg 62%
    20:00 +19°C° 0 mm 1 mps 651 mmHg 64%
    21:00 +18°C° 0 mm 1 mps 651 mmHg 66%
    22:00 +15°C° 0 mm 0 mps 651 mmHg 68%
    23:00 +16°C° 0 mm 1 mps 651 mmHg 68%

    26 August, Sunday

    Time Temperature Precipitation Wind Pressure Humidity
    00:00 +16°C° 0 mm 1 mps 650 mmHg 69%
    01:00 +15°C° 0 mm 1 mps 650 mmHg 70%
    02:00 +15°C° 0 mm 1 mps 650 mmHg 69%
    03:00 +15°C° 0 mm 1 mps 650 mmHg 69%
    04:00 +15°C° 0 mm 1 mps 650 mmHg 69%
    05:00 +16°C° 0 mm 1 mps 650 mmHg 65%
    06:00 +18°C° 0 mm 1 mps 651 mmHg 60%
    07:00 +20°C° 0 mm 1 mps 651 mmHg 56%
    08:00 +21°C° 0 mm 1 mps 651 mmHg 51%
    09:00 +23°C° 0 mm 1 mps 652 mmHg 46%
    10:00 +25°C° 0 mm 2 mps 652 mmHg 41%
    11:00 +25°C° 0 mm 2 mps 652 mmHg 40%
    12:00 +26°C° 0 mm 2 mps 652 mmHg 39%
    13:00 +26°C° 0 mm 3 mps 652 mmHg 38%
    14:00 +26°C° 0 mm 3 mps 652 mmHg 41%
    15:00 +25°C° 0 mm 3 mps 651 mmHg 43%
    16:00 +25°C° 0 mm 2 mps 651 mmHg 46%
    17:00 +23°C° 0 mm 2 mps 651 mmHg 54%
    18:00 +21°C° 0 mm 1 mps 650 mmHg 61%
    19:00 +19°C° 0 mm 1 mps 650 mmHg 69%
    20:00 +18°C° 0 mm 1 mps 650 mmHg 72%
    21:00 +18°C° 0 mm 1 mps 650 mmHg 74%
    22:00 +16°C° 0 mm 1 mps 650 mmHg 77%
    23:00 +16°C° 0 mm 1 mps 650 mmHg 79%
    Show more